User: anonymous   Login
Location: Unspecified
(0.0000°N, 0.0000°E)
Time: 08:07:58
(UTC+00:00)
Language:

Nadezhda 6 - Orbit

View from above orbital plane
View from above orbital plane
View from above satellite
View from above satellite

Ground track
Ground track

The orbit data is extracted from the following two-line orbital elements,

1 26384U 00033A   19346.08022160  .00000018  00000-0  11590-4 0  9990
2 26384  97.8935  34.3708 0016109  35.7734 324.4554 14.66533535 39872
Epoch (UTC): 12 December 2019 01:55:31
Eccentricity: 0.0016109
inclination: 97.8935°
perigee height: 661 km
apogee height: 683 km
right ascension of ascending node: 34.3708°
argument of perigee: 35.7734°
revolutions per day: 14.66533535
mean anomaly at epoch: 324.4554°
orbit number at epoch: 3987

The dashed part of the orbit path shows where the satellite is in the earth's shadow,  

DLR